Flag for U.S.A. Weather past 2 weeks in Downey, California, U.S.A.

Now
71 °F

Clear.


Feels Like: 74 °F
Forecast: 68 / 85 °F
Wind: No wind

Location: Long Beach Airport

Current Time: Jul 29, 2014 at 2:06:23 AM

Latest Report: Jul 29, 2014 at 12:53 AM


Visibility: 10 mi

Pressure: 30.01 "Hg

Humidity: 71%

Dew point: 61 °F

Location of DowneyLocation

Historic Weather in Downey — Graph

°F

Downey temperature yesterday

Maximum temperature yesterday: 88 °F (at 2:53 PM)
Minimum temperature yesterday: 70 °F (at 3:53 AM)
Average temperature yesterday: 76 °F

Past Weeks' High & Low Weather Summary

 TemperatureHumidityPressure
High91 °F (Jul 24, 2:53 PM)90% (Jul 22, 5:53 AM)30.06 "Hg (Jul 22, 5:53 AM)
Low64 °F (Jul 22, 5:53 AM)23% (Jul 28, 4:53 PM)29.73 "Hg (Jul 24, 5:53 PM)
Average73 °F69%29.96 "Hg
* Reported Jul 14 12:53 AM — Jul 29 12:53 AM, Downey, Weather by CustomWeather, © 2014

Note: Actual official high and low records may vary slightly from our data, if they occured in-between our weather recording intervals... More about our weather records

Advertising

Downey weather history for previous 24 hours

 ConditionsComfort  
Time TempWeatherWind HumidityBarometerVisibility
12:53 AM
Jul 29
71 °FClear.No wind71%30.01 "Hg10 mi
11:53 PM
Jul 28
71 °FClear.No wind71%30.01 "Hg10 mi
10:53 PM71 °FClear.3 mph76%30.02 "Hg10 mi
9:53 PM71 °FClear.7 mph78%30.01 "Hg10 mi
8:53 PM71 °FSunny.9 mph78%30.01 "Hg10 mi
7:53 PM73 °FSunny.9 mph69%29.99 "Hg10 mi
6:53 PM80 °FSunny.12 mph35%29.97 "Hg10 mi
5:53 PM84 °FSunny.14 mph24%29.96 "Hg10 mi
4:53 PM85 °FPartly sunny.13 mph23%29.98 "Hg10 mi
3:53 PM86 °FSunny.14 mph32%29.99 "Hg10 mi
2:53 PM88 °FSunny.7 mph29%30.01 "Hg10 mi
1:53 PM85 °FSunny.9 mph35%30.03 "Hg10 mi
12:53 PM85 °FSunny.No wind46%30.04 "Hg10 mi
11:53 AM86 °FSunny.No wind42%30.05 "Hg10 mi
10:53 AM80 °FBroken clouds.3 mph56%30.06 "Hg10 mi
9:53 AM76 °FSunny.No wind69%30.06 "Hg9 mi
8:53 AM73 °FSunny.No wind76%30.06 "Hg10 mi
7:53 AM72 °FSunny.No wind78%30.05 "Hg10 mi
6:53 AM71 °FClear.No wind81%30.03 "Hg9 mi
5:53 AM70 °FClear.5 mph84%30.03 "Hg10 mi
4:53 AM71 °FClear.3 mph81%30.03 "Hg10 mi
3:53 AM70 °FClear.No wind81%30.02 "Hg10 mi
2:53 AM71 °FPassing clouds.No wind78%30.02 "Hg10 mi
Weather by CustomWeather, © 2014

See weather overviewHow to use our weather pages